Weather History for Plymouth, NH

Change the Weather History Date:

Friday, May 9, 2014

  Actual Average (KLCI) Record (KLCI)
Temperature  
Mean Temperature 51 °F -  
Max Temperature 56 °F 64 °F 80 °F (2007)
Min Temperature 46 °F 40 °F 30 °F (1985)
Degree Days  
Heating Degree Days 14    
Growing Degree Days 1 (Base 50)    
Moisture  
Dew Point 31 °F    
Average Humidity 49    
Maximum Humidity 97    
Minimum Humidity 29    
Precipitation  
Precipitation 0.00 in - - ()
Sea Level Pressure  
Sea Level Pressure 30.19 in    
Wind  
Wind Speed 4 mph (ESE)    
Max Wind Speed 10 mph    
Max Gust Speed 16 mph    
Visibility 9 miles    
Events Rain    
Averages and records for this station are not official NWS values.
T = Trace of Precipitation, MM = Missing Value Source: NWS Daily Summary

Daily Weather History Graph

Daily Weather History Graph

Search for Another Location

Airport:

Trip Planner

Search our weather history database for the weather conditions in past years. The results will help you decide how hot, cold, wet, or windy it might be!

Date:

Astronomy

May. 09, 2014 Rise Set
Actual Time 5:28 AM EDT 7:59 PM EDT
Civil Twilight 4:56 AM EDT 8:31 PM EDT
Nautical Twilight 4:15 AM EDT 9:12 PM EDT
Astronomical Twilight 3:29 AM EDT 9:58 PM EDT
Moon 2:43 PM EDT (5/9) 2:40 AM EDT (5/9)
Length of Visible Light 15h 35m
Length of Day
14h 30m
Waxing Gibbous, 73% of the Moon is Illuminated
May 9
Waxing Gibbous
May 14
Full
May 21
Last Quarter
May 28
New
Jun 5
First Quarter

Hourly Weather History & Observations

Time (EDT) Temp. Dew Point Humidity Pressure Visibility Wind Dir Wind Speed Gust Speed Precip Events Conditions
12:15 AM 51.1 °F 39.4 °F 64% 30.19 in 10.0 mi Calm Calm - N/A   Clear
12:35 AM 52.0 °F 36.9 °F 56% 30.19 in 10.0 mi Calm Calm - N/A   Clear
1:15 AM 56.3 °F 25.7 °F 31% 30.19 in 10.0 mi East 4.6 mph - N/A   Clear
1:35 AM 56.1 °F 24.3 °F 29% 30.18 in 10.0 mi ESE 3.5 mph - N/A   Clear
1:55 AM 55.0 °F 25.0 °F 31% 30.18 in 10.0 mi Calm Calm - N/A   Clear
2:15 AM 54.1 °F 24.4 °F 32% 30.18 in 10.0 mi Calm Calm - N/A   Clear
2:35 AM 52.9 °F 25.3 °F 34% 30.19 in 10.0 mi Calm Calm - N/A   Clear
2:55 AM 53.1 °F 26.4 °F 36% 30.19 in 10.0 mi Calm Calm - N/A   Mostly Cloudy
3:15 AM 53.6 °F 22.6 °F 30% 30.19 in 10.0 mi ESE 4.6 mph - N/A   Scattered Clouds
3:35 AM 52.9 °F 23.2 °F 31% 30.20 in 10.0 mi SE 5.8 mph - N/A   Clear
3:55 AM 50.9 °F 25.2 °F 37% 30.21 in 10.0 mi Calm Calm - N/A   Clear
4:15 AM 51.1 °F 24.1 °F 35% 30.22 in 10.0 mi Calm Calm - N/A   Scattered Clouds
4:35 AM 51.6 °F 22.5 °F 32% 30.21 in 10.0 mi SE 3.5 mph - N/A   Scattered Clouds
5:15 AM 52.3 °F 21.6 °F 30% 30.21 in 10.0 mi SE 3.5 mph - N/A Rain Light Rain
5:35 AM 51.4 °F 23.4 °F 33% 30.23 in 10.0 mi Calm Calm - N/A   Overcast
5:55 AM 51.8 °F 22.8 °F 32% 30.22 in 10.0 mi East 4.6 mph - N/A   Overcast
6:15 AM 51.8 °F 22.6 °F 32% 30.24 in 10.0 mi ESE 3.5 mph - N/A   Overcast
6:35 AM 51.8 °F 22.1 °F 31% 30.23 in 10.0 mi East 4.6 mph - N/A   Overcast
6:55 AM 52.0 °F 21.4 °F 30% 30.23 in 10.0 mi ESE 5.8 mph - N/A   Overcast
7:15 AM 52.3 °F 22.5 °F 31% 30.24 in 10.0 mi ESE 4.6 mph - N/A   Overcast
7:35 AM 52.7 °F 21.2 °F 29% 30.24 in 10.0 mi ESE 5.8 mph - N/A   Overcast
7:55 AM 52.5 °F 21.4 °F 30% 30.25 in 10.0 mi ESE 5.8 mph - N/A   Overcast
8:15 AM 52.5 °F 21.4 °F 30% 30.25 in 10.0 mi ESE 8.1 mph - N/A   Overcast
8:35 AM 52.9 °F 21.2 °F 29% 30.25 in 10.0 mi ESE 8.1 mph - N/A   Overcast
8:55 AM 54.5 °F 22.5 °F 29% 30.24 in 10.0 mi East 10.4 mph - N/A   Overcast
9:15 AM 53.6 °F 21.7 °F 29% 30.25 in 10.0 mi East 9.2 mph - N/A   Overcast
9:55 AM 53.6 °F 22.8 °F 30% 30.25 in 10.0 mi ESE 5.8 mph - N/A   Overcast
10:15 AM 54.7 °F 23.7 °F 30% 30.25 in 10.0 mi ESE 3.5 mph - N/A   Overcast
10:35 AM 54.7 °F 23.0 °F 29% 30.24 in 10.0 mi East 9.2 mph - N/A   Overcast
10:55 AM 54.5 °F 23.5 °F 30% 30.24 in 10.0 mi ESE 4.6 mph - N/A   Overcast
11:15 AM 53.6 °F 22.5 °F 30% 30.24 in 10.0 mi ESE 9.2 mph 16.1 mph N/A   Overcast
11:35 AM 53.6 °F 23.2 °F 31% 30.24 in 10.0 mi ESE 6.9 mph - N/A   Overcast
11:55 AM 54.1 °F 24.6 °F 32% 30.21 in 10.0 mi ESE 8.1 mph - N/A   Overcast
12:15 PM 53.8 °F 24.3 °F 32% 30.22 in 10.0 mi ESE 6.9 mph - N/A   Overcast
12:35 PM 53.6 °F 23.9 °F 32% 30.22 in 10.0 mi ESE 6.9 mph - N/A   Overcast
12:55 PM 53.6 °F 24.4 °F 32% 30.22 in 10.0 mi SE 3.5 mph - N/A   Overcast
1:15 PM 54.5 °F 24.6 °F 31% 30.21 in 10.0 mi SE 6.9 mph - N/A   Overcast
1:35 PM 54.5 °F 24.8 °F 32% 30.21 in 10.0 mi ESE 9.2 mph - N/A   Overcast
1:55 PM 54.3 °F 25.3 °F 33% 30.21 in 10.0 mi East 5.8 mph - N/A   Overcast
2:15 PM 54.5 °F 25.2 °F 32% 30.20 in 10.0 mi East 6.9 mph - N/A   Overcast
2:35 PM 54.5 °F 26.8 °F 34% 30.20 in 10.0 mi East 4.6 mph - N/A   Overcast
2:55 PM 54.3 °F 28.9 °F 38% 30.18 in 10.0 mi ESE 8.1 mph - N/A   Overcast
3:15 PM 54.1 °F 30.4 °F 40% 30.18 in 10.0 mi ESE 5.8 mph - N/A   Overcast
3:35 PM 54.1 °F 32.0 °F 43% 30.17 in 10.0 mi East 8.1 mph - N/A   Overcast
3:55 PM 53.8 °F 32.2 °F 44% 30.17 in 10.0 mi ESE 9.2 mph - N/A   Overcast
4:15 PM 53.6 °F 33.1 °F 46% 30.17 in 10.0 mi ESE 5.8 mph - N/A   Overcast
4:35 PM 53.4 °F 34.0 °F 48% 30.16 in 10.0 mi ESE 5.8 mph - N/A   Overcast
4:55 PM 53.1 °F 35.1 °F 50% 30.15 in 10.0 mi East 8.1 mph - N/A   Overcast
5:15 PM 52.9 °F 36.5 °F 54% 30.15 in 10.0 mi East 5.8 mph - N/A   Overcast
5:35 PM 52.5 °F 37.4 °F 56% 30.15 in 10.0 mi East 8.1 mph - N/A   Overcast
5:55 PM 52.0 °F 37.8 °F 58% 30.14 in 10.0 mi East 6.9 mph - N/A   Overcast
6:15 PM 51.4 °F 39.4 °F 63% 30.14 in 10.0 mi ESE 6.9 mph - N/A   Overcast
6:35 PM 50.5 °F 40.6 °F 69% 30.14 in 10.0 mi ESE 5.8 mph - N/A   Overcast
6:55 PM 50.0 °F 41.5 °F 73% 30.14 in 10.0 mi ESE 3.5 mph - N/A   Overcast
7:15 PM 49.5 °F 42.1 °F 76% 30.14 in 10.0 mi SE 4.6 mph - N/A   Overcast
7:55 PM 48.2 °F 43.5 °F 84% 30.13 in 7.0 mi SE 4.6 mph - N/A   Overcast
8:15 PM 47.5 °F 44.2 °F 89% 30.13 in 7.0 mi ESE 3.5 mph - N/A   Overcast
8:35 PM 47.3 °F 44.6 °F 90% 30.13 in 4.0 mi East 4.6 mph - N/A   Overcast
8:55 PM 46.9 °F 45.0 °F 93% 30.12 in 4.0 mi East 4.6 mph - N/A   Overcast
9:15 PM 46.8 °F 45.1 °F 94% 30.12 in 3.0 mi ENE 3.5 mph - N/A   Overcast
9:35 PM 46.6 °F 45.1 °F 95% 30.12 in 3.0 mi Calm Calm - N/A   Overcast
9:55 PM 46.6 °F 45.5 °F 96% 30.11 in 3.0 mi Calm Calm - N/A   Overcast
10:15 PM 46.6 °F 45.5 °F 96% 30.12 in 3.0 mi Calm Calm - N/A   Overcast
10:35 PM 46.8 °F 45.7 °F 96% 30.11 in 2.5 mi Calm Calm - N/A   Overcast
10:55 PM 46.6 °F 45.5 °F 96% 30.10 in 3.0 mi Calm Calm - N/A   Overcast
11:15 PM 46.6 °F 45.5 °F 96% 30.09 in 3.0 mi Calm Calm - N/A   Overcast
11:35 PM 46.4 °F 45.5 °F 97% 30.08 in 2.5 mi Calm Calm - N/A   Overcast
11:55 PM 46.4 °F 45.5 °F 97% 30.08 in 3.0 mi Calm Calm - N/A   Overcast